Вернуться в каталог

ATLAS 5 CENTAUR DEB

LostHEO
NORAD 43979·DEBRIS·🇺🇸 United States

Запущен Sep 17, 2014 с Cape Canaveral Space Force Station

Loading…

Ближайшие Пролёты (ближайшие 24 часа)

TLE

УстаревшееSource: Space-Track

Эпоха: Jan 25, 2019, 15:54 UTC

1 43979U 14055AJ  19025.66294118 -.00000191  00000-0  00000-0 0  9993
2 43979  22.2249  32.7674 4648425  79.4865 328.1574  1.84146158  2646

Отслеживайте ATLAS 5 CENTAUR DEB в реальном времени с AllMySat

Download on the App Store